Stündliche Wetter Holubijevychi

Heute, 25 Juni, Freitag

Zeit Temperatur Niederschläge Wind Luftdruck Luftfeuchtigkeit
00:00 +25°C° 0 mm 2 m/S 747 mmHg 79%
01:00 +24°C° 0 mm 2 m/S 747 mmHg 82%
02:00 +24°C° 0 mm 2 m/S 747 mmHg 86%
03:00 +24°C° 0 mm 2 m/S 747 mmHg 87%
04:00 +23°C° 0 mm 2 m/S 747 mmHg 87%
05:00 +23°C° 0 mm 2 m/S 747 mmHg 88%
06:00 +25°C° 0 mm 2 m/S 747 mmHg 81%
07:00 +27°C° 0 mm 2 m/S 747 mmHg 74%
08:00 +29°C° 0 mm 2 m/S 747 mmHg 67%
09:00 +30°C° 0 mm 2 m/S 747 mmHg 60%
10:00 +33°C° 0 mm 3 m/S 747 mmHg 52%
11:00 +34°C° 0 mm 3 m/S 747 mmHg 45%
12:00 +35°C° 0 mm 4 m/S 747 mmHg 42%
13:00 +35°C° 0 mm 4 m/S 747 mmHg 39%
14:00 +36°C° 0 mm 4 m/S 747 mmHg 36%
15:00 +35°C° 0 mm 3 m/S 746 mmHg 39%
16:00 +35°C° 0 mm 3 m/S 746 mmHg 42%
17:00 +35°C° 0 mm 2 m/S 745 mmHg 45%
18:00 +31°C° 0.1 mm 3 m/S 746 mmHg 53%
19:00 +28°C° 0.1 mm 3 m/S 746 mmHg 62%
20:00 +25°C° 0.1 mm 3 m/S 746 mmHg 70%
21:00 +24°C° 0.3 mm 3 m/S 746 mmHg 75%
22:00 +22°C° 0.3 mm 3 m/S 746 mmHg 80%
23:00 +22°C° 0.3 mm 3 m/S 746 mmHg 85%

Morgen, 26 Juni, Samstag

Zeit Temperatur Niederschläge Wind Luftdruck Luftfeuchtigkeit
00:00 +21°C° 0 mm 2 m/S 746 mmHg 87%
01:00 +21°C° 0 mm 2 m/S 746 mmHg 89%
02:00 +21°C° 0 mm 1 m/S 745 mmHg 92%
03:00 +21°C° 0 mm 1 m/S 746 mmHg 91%
04:00 +21°C° 0 mm 1 m/S 746 mmHg 91%
05:00 +21°C° 0 mm 1 m/S 746 mmHg 90%
06:00 +22°C° 0.1 mm 1 m/S 746 mmHg 85%
07:00 +24°C° 0.1 mm 2 m/S 746 mmHg 80%
08:00 +25°C° 0.1 mm 2 m/S 746 mmHg 74%
09:00 +27°C° 0 mm 2 m/S 746 mmHg 69%
10:00 +28°C° 0 mm 2 m/S 746 mmHg 64%
11:00 +29°C° 0 mm 2 m/S 746 mmHg 59%
12:00 +30°C° 0 mm 1 m/S 746 mmHg 57%
13:00 +31°C° 0 mm 1 m/S 746 mmHg 55%
14:00 +31°C° 0 mm 1 m/S 746 mmHg 52%
15:00 +29°C° 1.2 mm 2 m/S 745 mmHg 62%
16:00 +26°C° 1.2 mm 3 m/S 744 mmHg 72%
17:00 +23°C° 1.2 mm 4 m/S 744 mmHg 81%
18:00 +21°C° 2.9 mm 3 m/S 744 mmHg 85%
19:00 +20°C° 2.9 mm 3 m/S 745 mmHg 89%
20:00 +19°C° 2.9 mm 3 m/S 746 mmHg 93%
21:00 +19°C° 0.1 mm 2 m/S 746 mmHg 93%
22:00 +19°C° 0.1 mm 2 m/S 746 mmHg 92%
23:00 +20°C° 0.1 mm 1 m/S 746 mmHg 91%

übermorgen, 27 Juni, Sonntag

Zeit Temperatur Niederschläge Wind Luftdruck Luftfeuchtigkeit
00:00 +20°C° 0 mm 1 m/S 746 mmHg 92%
01:00 +19°C° 0 mm 2 m/S 745 mmHg 94%
02:00 +18°C° 0 mm 2 m/S 745 mmHg 95%
03:00 +19°C° 0.1 mm 2 m/S 746 mmHg 96%
04:00 +19°C° 0.1 mm 2 m/S 746 mmHg 96%
05:00 +19°C° 0.1 mm 2 m/S 746 mmHg 97%
06:00 +20°C° 0 mm 3 m/S 746 mmHg 94%
07:00 +21°C° 0 mm 3 m/S 746 mmHg 90%
08:00 +22°C° 0 mm 4 m/S 746 mmHg 87%
09:00 +23°C° 0 mm 4 m/S 746 mmHg 81%
10:00 +25°C° 0 mm 5 m/S 746 mmHg 76%
11:00 +26°C° 0 mm 5 m/S 746 mmHg 70%
12:00 +26°C° 0 mm 5 m/S 746 mmHg 68%
13:00 +27°C° 0 mm 5 m/S 746 mmHg 66%
14:00 +27°C° 0 mm 5 m/S 746 mmHg 64%
15:00 +27°C° 0.4 mm 5 m/S 746 mmHg 67%
16:00 +26°C° 0.4 mm 5 m/S 746 mmHg 71%
17:00 +25°C° 0.4 mm 5 m/S 746 mmHg 74%
18:00 +23°C° 0 mm 4 m/S 746 mmHg 78%
19:00 +22°C° 0 mm 4 m/S 746 mmHg 83%
20:00 +21°C° 0 mm 3 m/S 746 mmHg 87%
21:00 +20°C° 0 mm 3 m/S 746 mmHg 89%
22:00 +20°C° 0 mm 3 m/S 746 mmHg 91%
23:00 +19°C° 0 mm 3 m/S 747 mmHg 93%

28 Juni, Montag

Zeit Temperatur Niederschläge Wind Luftdruck Luftfeuchtigkeit
00:00 +19°C° 0 mm 3 m/S 747 mmHg 92%
01:00 +18°C° 0 mm 3 m/S 747 mmHg 92%
02:00 +18°C° 0 mm 4 m/S 747 mmHg 91%
03:00 +18°C° 0 mm 4 m/S 747 mmHg 91%
04:00 +18°C° 0 mm 3 m/S 747 mmHg 90%
05:00 +18°C° 0 mm 3 m/S 747 mmHg 89%
06:00 +19°C° 0 mm 4 m/S 747 mmHg 83%
07:00 +20°C° 0 mm 4 m/S 747 mmHg 76%
08:00 +22°C° 0 mm 5 m/S 747 mmHg 70%
09:00 +23°C° 0 mm 5 m/S 747 mmHg 64%
10:00 +25°C° 0 mm 5 m/S 747 mmHg 59%
11:00 +26°C° 0 mm 5 m/S 747 mmHg 53%
12:00 +27°C° 0 mm 5 m/S 747 mmHg 51%
13:00 +27°C° 0 mm 5 m/S 747 mmHg 48%
14:00 +28°C° 0 mm 5 m/S 747 mmHg 45%
15:00 +27°C° 0 mm 5 m/S 747 mmHg 47%
16:00 +27°C° 0 mm 5 m/S 747 mmHg 49%
17:00 +27°C° 0 mm 4 m/S 747 mmHg 51%
18:00 +25°C° 0 mm 4 m/S 747 mmHg 57%
19:00 +22°C° 0 mm 3 m/S 747 mmHg 63%
20:00 +20°C° 0 mm 3 m/S 747 mmHg 69%
21:00 +20°C° 0 mm 3 m/S 747 mmHg 69%
22:00 +19°C° 0 mm 3 m/S 747 mmHg 70%
23:00 +18°C° 0 mm 3 m/S 747 mmHg 70%

29 Juni, Dienstag

Zeit Temperatur Niederschläge Wind Luftdruck Luftfeuchtigkeit
00:00 +18°C° 0 mm 3 m/S 747 mmHg 72%
01:00 +17°C° 0 mm 3 m/S 746 mmHg 74%
02:00 +17°C° 0 mm 3 m/S 746 mmHg 76%
03:00 +17°C° 0 mm 3 m/S 746 mmHg 79%
04:00 +16°C° 0 mm 3 m/S 746 mmHg 82%
05:00 +16°C° 0 mm 3 m/S 746 mmHg 85%
06:00 +18°C° 0 mm 3 m/S 746 mmHg 79%
07:00 +20°C° 0 mm 4 m/S 746 mmHg 72%
08:00 +22°C° 0 mm 4 m/S 746 mmHg 65%
09:00 +23°C° 0 mm 4 m/S 746 mmHg 61%
10:00 +25°C° 0 mm 5 m/S 746 mmHg 56%
11:00 +26°C° 0 mm 5 m/S 746 mmHg 51%
12:00 +27°C° 0 mm 5 m/S 746 mmHg 49%
13:00 +27°C° 0 mm 5 m/S 745 mmHg 47%
14:00 +28°C° 0 mm 4 m/S 745 mmHg 46%
15:00 +27°C° 0 mm 3 m/S 745 mmHg 52%
16:00 +25°C° 0 mm 3 m/S 745 mmHg 59%
17:00 +24°C° 0 mm 2 m/S 745 mmHg 65%
18:00 +24°C° 0 mm 2 m/S 745 mmHg 67%
19:00 +23°C° 0 mm 2 m/S 745 mmHg 69%
20:00 +23°C° 0 mm 2 m/S 745 mmHg 71%
21:00 +21°C° 0 mm 2 m/S 745 mmHg 73%
22:00 +20°C° 0 mm 2 m/S 745 mmHg 76%
23:00 +19°C° 0 mm 2 m/S 744 mmHg 79%

30 Juni, Mittwoch

Zeit Temperatur Niederschläge Wind Luftdruck Luftfeuchtigkeit
00:00 +19°C° 0 mm 2 m/S 744 mmHg 80%
01:00 +18°C° 0 mm 2 m/S 744 mmHg 81%
02:00 +18°C° 0 mm 2 m/S 744 mmHg 82%
03:00 +18°C° 0 mm 2 m/S 744 mmHg 84%
04:00 +18°C° 0 mm 2 m/S 744 mmHg 85%
05:00 +18°C° 0 mm 2 m/S 744 mmHg 86%
06:00 +19°C° 0 mm 2 m/S 744 mmHg 80%
07:00 +21°C° 0 mm 2 m/S 744 mmHg 73%
08:00 +23°C° 0 mm 2 m/S 744 mmHg 66%
09:00 +25°C° 0 mm 2 m/S 744 mmHg 60%
10:00 +26°C° 0 mm 2 m/S 744 mmHg 54%
11:00 +28°C° 0 mm 2 m/S 743 mmHg 47%
12:00 +28°C° 0 mm 2 m/S 743 mmHg 45%
13:00 +29°C° 0 mm 2 m/S 743 mmHg 43%
14:00 +29°C° 0 mm 2 m/S 743 mmHg 41%
15:00 +29°C° 0 mm 2 m/S 743 mmHg 44%
16:00 +29°C° 0 mm 2 m/S 743 mmHg 47%
17:00 +29°C° 0 mm 2 m/S 742 mmHg 50%
18:00 +27°C° 0 mm 1 m/S 742 mmHg 55%
19:00 +25°C° 0 mm 1 m/S 742 mmHg 60%
20:00 +22°C° 0 mm 0 m/S 742 mmHg 65%
21:00 +23°C° 0 mm 1 m/S 742 mmHg 66%
22:00 +22°C° 0 mm 1 m/S 742 mmHg 67%
23:00 +20°C° 0 mm 2 m/S 742 mmHg 69%
Mehr zeigen

Wir brauchen deine Erlaubnis

Meteoprog und unser Service Anbieter werden persönliche Daten aufbewahren, so wie Cookies, Geräte Bezeichnung oder ähnliche Technologien von deinem Gerät und Prozess, so wie Persönliche Daten Inhalte und Werbungen, genauso wie social Media und den Verkehr zu analysieren.

  • Aufbewahrung und/oder Zugang zu deiner Geräte Informationen.

    Cookies, Geräte Bezeichnung oder andere Informationen, können aufbewahrt oder Zugang zu deinem Gerät erhalten, für den Grund, der oben angegeben wird.

  • Personalisierte Werbung und Inhalte, Messungen, Einblick in das Publikum und Produkt Entwicklung.

    Werbungen und Inhalte können personalisiert werden, basierend auf ein Profil. Mehr Daten können besser personalisierte Werbungen und Inhalte hinzufügen. Werbung und Inhalte können gezeigt und gemessen werden. Einblicke über das Publikum, welche die Werbung gesehen haben und den Inhalt, können abgeleitet werden. So wie Daten können genutzt werden, um es zu verbessern oder die Benutzer Erfahrung zu verbessern das System und die Software.

Wenn du “Ich stimme zu” klickst, erlaubst du uns, die Cookies zu benutzen die Geräte Bezeichnung, den Web oder ähnliche Technologien zu benutzen. Deine Settings, können in deinem Gerät bei deinem Browser geändert werden.

Für den bestimmten Zweck, berechtigten Interessen beruhen darauf, mehr als auf den Inhalt. Du kannst mehr darüber in unseren Privaten und Cookie Politik lesen.